Mitchell, SD

7:37 PM CDT on June 28, 2017 (GMT -0500)
Mitchell Municipal

Weather History for KMHE - March, 2013

Change the Weather History Date:

Tuesday, March 5, 2013

  Actual Average Record
Temperature  
Mean Temperature 23 °F 30 °F  
Max Temperature 27 °F 40 °F 74 °F (2000)
Min Temperature 19 °F 20 °F -14 °F (1920)
Degree Days  
Heating Degree Days 42 35  
Month to date heating degree days 203 179  
Since 1 July heating degree days 5668 5701  
Cooling Degree Days 0 0  
Month to date cooling degree days 0 0  
Year to date cooling degree days 0 0  
Moisture  
Dew Point 18 °F    
Average Humidity 80    
Maximum Humidity 93    
Minimum Humidity 74    
Precipitation  
Precipitation 0.01 in 0.03 in 1.00 in (1933)
Month to date precipitation 0.01 0.12  
Year to date precipitation 1.58 0.68  
Snow  
Snow 0.20 in - 11.00 in (1966)
Month to date snowfall 0.2  
Since 1 July snowfall 28.1  
Snow Depth 4.00 in    
Sea Level Pressure  
Sea Level Pressure 30.24 in    
Wind  
Wind Speed 23 mph (NNW)    
Max Wind Speed 38 mph    
Max Gust Speed 48 mph    
Visibility 5 miles    
Events Fog , Snow    
T = Trace of Precipitation, MM = Missing Value Source: NWS Daily Summary

Daily Weather History Graph

Daily Weather History Graph

Search for Another Location

Airport or City:

Trip Planner

Search our weather history database for the weather conditions in past years. The results will help you decide how hot, cold, wet, or windy it might be!

Date:

Astronomy

Mar. 05, 2013 Rise Set
Actual Time 7:01 AM CST 6:26 PM CST
Civil Twilight 6:32 AM CST 6:55 PM CST
Nautical Twilight 5:59 AM CST 7:28 PM CST
Astronomical Twilight 5:26 AM CST 8:01 PM CST
Moon 2:23 AM CST (3/5) 11:58 AM CST (3/5)
Length of Visible Light 12h 22m
Length of Day
11h 24m
Last Quarter, 40% of the Moon is Illuminated
Mar 5
Last Quarter
Mar 11
New
Mar 19
First Quarter
Mar 27
Full
Apr 2
Last Quarter

Hourly Weather History & Observations

Time (CST) Temp. Windchill Dew Point Humidity Pressure Visibility Wind Dir Wind Speed Gust Speed Precip Events Conditions
1:53 AM 25.0 °F 9.5 °F 19.9 °F 81% 30.01 in 4.0 mi WNW 24.2 mph 34.5 mph 0.00 in Snow Light Snow
2:53 AM 26.1 °F 10.7 °F 21.0 °F 81% 30.01 in 3.0 mi WNW 25.3 mph 33.4 mph 0.00 in Snow Light Snow
3:02 AM 26.6 °F 11.7 °F 21.2 °F 80% 29.96 in 2.5 mi WNW 24.2 mph 32.2 mph 0.00 in Snow Light Snow
3:24 AM 26.6 °F 11.4 °F 21.2 °F 80% 29.96 in 3.0 mi WNW 25.3 mph 32.2 mph 0.00 in Snow Light Snow
3:46 AM 26.6 °F 11.1 °F 23.0 °F 86% 29.97 in 1.8 mi NW 26.5 mph - 0.00 in Snow Light Snow
3:53 AM 27.0 °F 11.9 °F 24.1 °F 89% 30.02 in 1.5 mi NW 25.3 mph - 0.00 in Snow Light Snow
4:41 AM 26.6 °F 9.6 °F 24.8 °F 93% 30.01 in 0.5 mi NW 33.4 mph 40.3 mph 0.00 in Fog , Snow Light Snow
4:53 AM 26.1 °F 8.8 °F 23.0 °F 88% 30.07 in 0.5 mi NNW 33.4 mph 48.3 mph 0.00 in Fog , Snow Light Snow
5:23 AM 24.8 °F 7.6 °F 21.2 °F 86% 30.05 in 0.5 mi NW 31.1 mph 41.4 mph 0.00 in Fog , Snow Light Snow
5:53 AM 25.0 °F 8.1 °F 21.9 °F 88% 30.13 in 0.8 mi NNW 29.9 mph 41.4 mph 0.00 in Snow Light Snow
6:42 AM 24.8 °F 8.4 °F 21.2 °F 86% 30.12 in 0.8 mi NW 27.6 mph 39.1 mph 0.00 in Snow Light Snow
6:49 AM 24.8 °F 8.4 °F 21.2 °F 86% 30.12 in 1.0 mi NW 27.6 mph 38.0 mph 0.00 in Snow Light Snow
6:53 AM 25.0 °F 8.6 °F 21.0 °F 85% 30.18 in 1.0 mi NW 27.6 mph 36.8 mph 0.00 in Snow Light Snow
7:00 AM 24.8 °F 8.1 °F 21.2 °F 86% 30.13 in 0.8 mi NW 28.8 mph 36.8 mph 0.00 in Snow Light Snow
7:23 AM 24.8 °F 7.6 °F 19.4 °F 80% 30.14 in 1.5 mi NNW 31.1 mph 39.1 mph 0.00 in Snow Light Snow
7:53 AM 23.0 °F 4.9 °F 19.0 °F 85% 30.22 in 1.2 mi NNW 32.2 mph 41.4 mph 0.00 in Snow Blowing Snow
8:25 AM 23.0 °F 5.4 °F 17.6 °F 80% 30.19 in 3.0 mi NNW 29.9 mph 39.1 mph N/A Snow Blowing Snow
8:53 AM 24.1 °F 7.7 °F 18.0 °F 77% 30.26 in 10.0 mi NNW 26.5 mph - N/A   Overcast
9:09 AM 24.8 °F 9.3 °F 19.4 °F 80% 30.22 in 9.0 mi NNW 24.2 mph 34.5 mph 0.00 in   Overcast
9:42 AM 24.8 °F 9.0 °F 17.6 °F 74% 30.24 in 2.5 mi NNW 25.3 mph 39.1 mph 0.00 in Snow Light Snow
9:51 AM 24.8 °F 9.0 °F 17.6 °F 74% 30.24 in 3.0 mi NNW 25.3 mph 34.5 mph 0.00 in Snow Light Snow
9:53 AM 24.1 °F 8.0 °F 19.0 °F 81% 30.30 in 3.0 mi NNW 25.3 mph 34.5 mph 0.00 in Snow Light Snow
10:00 AM 23.0 °F 5.7 °F 17.6 °F 80% 30.25 in 1.8 mi NNW 28.8 mph 40.3 mph 0.00 in Snow Light Snow
10:15 AM 23.0 °F 5.4 °F 17.6 °F 80% 30.25 in 2.0 mi NW 29.9 mph 38.0 mph 0.00 in Snow Light Snow
10:22 AM 23.0 °F 5.1 °F 17.6 °F 80% 30.25 in 1.2 mi NNW 31.1 mph 39.1 mph 0.00 in Snow Light Snow
10:42 AM 23.0 °F 6.6 °F 17.6 °F 80% 30.26 in 2.5 mi NNW 25.3 mph 38.0 mph 0.00 in Snow Light Snow
10:53 AM 23.0 °F 5.1 °F 18.0 °F 81% 30.33 in 1.8 mi NNW 31.1 mph 36.8 mph 0.00 in Snow Light Snow
11:01 AM 24.8 °F 8.4 °F 17.6 °F 74% 30.27 in 3.0 mi NNW 27.6 mph 35.7 mph 0.00 in Snow Light Snow
11:19 AM 23.0 °F 5.4 °F 17.6 °F 80% 30.28 in 1.8 mi NNW 29.9 mph 36.8 mph 0.00 in Snow Light Snow
11:27 AM 24.8 °F 8.1 °F 17.6 °F 74% 30.28 in 3.0 mi NNW 28.8 mph 38.0 mph 0.00 in Snow Light Snow
11:53 AM 24.1 °F 7.1 °F 18.0 °F 77% 30.35 in 5.0 mi NNW 28.8 mph 34.5 mph 0.00 in Snow Light Snow
12:53 PM 24.1 °F 8.3 °F 17.1 °F 75% 30.37 in 10.0 mi NW 24.2 mph - 0.00 in   Overcast
1:53 PM 24.1 °F 8.3 °F 17.1 °F 75% 30.37 in 10.0 mi NNW 24.2 mph 35.7 mph 0.00 in   Overcast
2:53 PM 23.0 °F 6.6 °F 16.0 °F 74% 30.38 in 10.0 mi NNW 25.3 mph 31.1 mph 0.00 in   Overcast
3:53 PM 24.1 °F 9.8 °F 17.1 °F 75% 30.40 in 10.0 mi NNW 19.6 mph 26.5 mph N/A   Overcast
4:53 PM 23.0 °F 7.6 °F 16.0 °F 74% 30.43 in 10.0 mi NNW 21.9 mph 28.8 mph N/A   Overcast
5:53 PM 21.9 °F 6.5 °F 15.1 °F 75% 30.43 in 10.0 mi NNW 20.7 mph - N/A   Overcast
6:53 PM 21.9 °F 8.7 °F 15.1 °F 75% 30.45 in 10.0 mi NNW 15.0 mph - N/A   Overcast
7:53 PM 21.9 °F 10.4 °F 15.1 °F 75% 30.45 in 10.0 mi NNW 11.5 mph - N/A   Overcast
8:53 PM 21.0 °F 8.6 °F 15.1 °F 78% 30.45 in 10.0 mi North 12.7 mph - N/A   Overcast
9:50 PM 19.4 °F 7.2 °F 14.0 °F 80% 30.40 in 10.0 mi North 11.5 mph - N/A   Overcast
9:53 PM 19.9 °F 7.3 °F 14.0 °F 78% 30.46 in 10.0 mi North 12.7 mph - N/A   Overcast
10:53 PM 19.9 °F 9.3 °F 14.0 °F 78% 30.47 in 10.0 mi North 9.2 mph - N/A   Overcast
11:53 PM 19.0 °F 8.2 °F 14.0 °F 81% 30.48 in 10.0 mi NW 9.2 mph - N/A   Overcast